User: anonymous   Login
Location: Newark
(3.3223°N, 76.2348°W)
Time: 03:10:34
(UTC+00:00)
Language:

DIWATA 2B (PO-101) - Orbit

View from above orbital plane
View from above orbital plane
View from above satellite
View from above satellite

Ground track
Ground track

The orbit data is extracted from the following two-line orbital elements,

1 43678U 18084H   20021.75825587  .00000329  00000-0  38442-4 0  9990
2 43678  97.8683 140.3424 0008736 311.3532  48.6953 14.91602032 67007
Epoch (UTC): 21 January 2020 18:11:53
Eccentricity: 0.0008736
inclination: 97.8683°
perigee height: 587 km
apogee height: 599 km
right ascension of ascending node: 140.3424°
argument of perigee: 311.3532°
revolutions per day: 14.91602032
mean anomaly at epoch: 48.6953°
orbit number at epoch: 6700

The dashed part of the orbit path shows where the satellite is in the earth's shadow,  

DLR